Retour au catalogue

STARLINK-4035

ActifCommunicationsVLEO
NORAD 52690·PAYLOAD·🇺🇸 United States

Lancé May 18, 2022 depuis Cape Canaveral Space Force Station

Loading…

Prochains Passages (prochaines 24 heures)

TLE

FraisSource: CelesTrak SupGP

Époque: Sep 15, 2026, 01:42 UTC

1 52690C 22053AL  26258.07131944  .00003133  00000+0  11819-3 0  2586
2 52690  53.1608   9.0551 0001261  83.5742  89.9173 15.26504236    18

Suivez STARLINK-4035 en temps réel avec AllMySat

Download on the App Store